Kirishima Maru No.5 — JD2506 — position and weather

sailwx.info

Track history (hours):
 
Tides and Currents Weather Stations Pressure Air Temp Water Temp Dewpoint Dewpoint Depression Visibility Wind Speed Wind Dir Waves Ship Positions

Kirishima Maru No.5

Last reported at 2014-Jul-28 23:33 UTC. Time now 2014-Jul-30 05:06 UTC.
Position N 34°38' E 135°00'.

Length 105 m; draft 6.3 m.

Type: Tanker. MMSI: 431000338.

Date/timePositionNaut miles runAvg speedWind from/ knotsBaromVisibWave heightAir tempDewpointWater temp
2014-Jul-28 23:33N 34°38' E 135°00'1312.4
2014-Jul-28 22:32N 34°25' E 135°02'1413.7
2014-Jul-28 21:33N 34°12' E 134°59'23411.6
2014-Jul-28 01:28N 34°44' E 139°40'1613.5
2014-Jul-28 00:18N 34°51' E 139°57'912.3
2014-Jul-27 23:32N 34°55' E 140°07'1111.3
2014-Jul-27 22:33N 35°01' E 140°19'1410.5
2014-Jul-27 21:12N 35°11' E 140°31'913.0
2014-Jul-27 20:32N 35°18' E 140°37'1414.3
2014-Jul-27 19:33N 35°29' E 140°48'1614.2
2014-Jul-27 18:27N 35°43' E 140°58'1414.6
2014-Jul-27 17:29N 35°56' E 140°60'  
2014-Jul-20 11:33N 35°25' E 140°44'1515.5
2014-Jul-20 10:33N 35°13' E 140°33'1814.7
2014-Jul-20 09:18N 35°00' E 140°17'1115.2
2014-Jul-20 08:33N 34°55' E 140°04'1513.7
2014-Jul-20 07:29N 34°51' E 139°47'1414.9
2014-Jul-20 06:34N 35°05' E 139°43'1313.4
2014-Jul-20 05:33N 35°18' E 139°44'5 4.6
2014-Jul-20 04:31N 35°23' E 139°44'0 0.0
2014-Jul-20 03:31N 35°23' E 139°44'0 0.0
2014-Jul-20 02:31N 35°23' E 139°44'0 0.0
2014-Jul-20 01:31N 35°23' E 139°44'0 0.0
2014-Jul-20 00:31N 35°23' E 139°44'0 0.0
2014-Jul-19 23:31N 35°23' E 139°44'0 0.0
2014-Jul-19 22:31N 35°23' E 139°44'0 0.0
2014-Jul-19 21:31N 35°23' E 139°44'0 0.0
2014-Jul-19 20:31N 35°23' E 139°44'0 0.0
2014-Jul-19 19:31N 35°23' E 139°44'0 0.0
2014-Jul-19 18:31N 35°23' E 139°44'0 0.0
2014-Jul-19 17:31N 35°23' E 139°44'0 0.0
2014-Jul-19 16:31N 35°23' E 139°44'0 0.0
2014-Jul-19 15:31N 35°23' E 139°44'0 0.0
2014-Jul-19 14:31N 35°23' E 139°44'0 0.0
2014-Jul-19 13:31N 35°23' E 139°44'0 0.0
2014-Jul-19 12:31N 35°23' E 139°44'0 0.1
2014-Jul-19 11:31N 35°23' E 139°44'0 0.0
2014-Jul-19 10:31N 35°23' E 139°44'0 0.1
2014-Jul-19 09:33N 35°23' E 139°44'8 7.6
2014-Jul-19 08:32N 35°31' E 139°46'0 0.0
2014-Jul-19 07:32N 35°31' E 139°46'0 0.0
2014-Jul-19 06:32N 35°31' E 139°46'0 0.0
2014-Jul-19 05:32N 35°31' E 139°46'0 0.0
2014-Jul-19 04:32N 35°31' E 139°46'0 0.0
2014-Jul-19 03:33N 35°31' E 139°46'0 0.4
2014-Jul-19 02:34N 35°31' E 139°46'4 3.8
2014-Jul-19 01:33N 35°27' E 139°44'3 2.9
2014-Jul-19 00:33N 35°24' E 139°46'  
Track history (hours):
 
Tides and Currents Weather Stations Pressure Air Temp Water Temp Dewpoint Dewpoint Depression Visibility Wind Speed Wind Dir Waves Ship Positions

Kirishima Maru No.5

Last reported at 2014-Jul-28 23:33 UTC. Time now 2014-Jul-30 05:06 UTC.
Position N 34°38' E 135°00'.

Length 105 m; draft 6.3 m.

Type: Tanker. MMSI: 431000338.

Date/timePositionNaut miles runAvg speedWind from/ knotsBaromVisibWave heightAir tempDewpointWater temp
2014-Jul-28 23:33N 34°38' E 135°00'1312.4
2014-Jul-28 22:32N 34°25' E 135°02'1413.7
2014-Jul-28 21:33N 34°12' E 134°59'23411.6
2014-Jul-28 01:28N 34°44' E 139°40'1613.5
2014-Jul-28 00:18N 34°51' E 139°57'912.3
2014-Jul-27 23:32N 34°55' E 140°07'1111.3
2014-Jul-27 22:33N 35°01' E 140°19'1410.5
2014-Jul-27 21:12N 35°11' E 140°31'913.0
2014-Jul-27 20:32N 35°18' E 140°37'1414.3
2014-Jul-27 19:33N 35°29' E 140°48'1614.2
2014-Jul-27 18:27N 35°43' E 140°58'1414.6
2014-Jul-27 17:29N 35°56' E 140°60'  
2014-Jul-20 11:33N 35°25' E 140°44'1515.5
2014-Jul-20 10:33N 35°13' E 140°33'1814.7
2014-Jul-20 09:18N 35°00' E 140°17'1115.2
2014-Jul-20 08:33N 34°55' E 140°04'1513.7
2014-Jul-20 07:29N 34°51' E 139°47'1414.9
2014-Jul-20 06:34N 35°05' E 139°43'1313.4
2014-Jul-20 05:33N 35°18' E 139°44'5 4.6
2014-Jul-20 04:31N 35°23' E 139°44'0 0.0
2014-Jul-20 03:31N 35°23' E 139°44'0 0.0
2014-Jul-20 02:31N 35°23' E 139°44'0 0.0
2014-Jul-20 01:31N 35°23' E 139°44'0 0.0
2014-Jul-20 00:31N 35°23' E 139°44'0 0.0
2014-Jul-19 23:31N 35°23' E 139°44'0 0.0
2014-Jul-19 22:31N 35°23' E 139°44'0 0.0
2014-Jul-19 21:31N 35°23' E 139°44'0 0.0
2014-Jul-19 20:31N 35°23' E 139°44'0 0.0
2014-Jul-19 19:31N 35°23' E 139°44'0 0.0
2014-Jul-19 18:31N 35°23' E 139°44'0 0.0
2014-Jul-19 17:31N 35°23' E 139°44'0 0.0
2014-Jul-19 16:31N 35°23' E 139°44'0 0.0
2014-Jul-19 15:31N 35°23' E 139°44'0 0.0
2014-Jul-19 14:31N 35°23' E 139°44'0 0.0
2014-Jul-19 13:31N 35°23' E 139°44'0 0.0
2014-Jul-19 12:31N 35°23' E 139°44'0 0.1
2014-Jul-19 11:31N 35°23' E 139°44'0 0.0
2014-Jul-19 10:31N 35°23' E 139°44'0 0.1
2014-Jul-19 09:33N 35°23' E 139°44'8 7.6
2014-Jul-19 08:32N 35°31' E 139°46'0 0.0
2014-Jul-19 07:32N 35°31' E 139°46'0 0.0
2014-Jul-19 06:32N 35°31' E 139°46'0 0.0
2014-Jul-19 05:32N 35°31' E 139°46'0 0.0
2014-Jul-19 04:32N 35°31' E 139°46'0 0.0
2014-Jul-19 03:33N 35°31' E 139°46'0 0.4
2014-Jul-19 02:34N 35°31' E 139°46'4 3.8
2014-Jul-19 01:33N 35°27' E 139°44'3 2.9
2014-Jul-19 00:33N 35°24' E 139°46'  

Dump ship's entire track history